| time (UTC) | temp F | wind direction | speed MPH | gust MPH | rain 1hr in | rain 24hr in | rain mn in | humidity % | barometer mb |
| 20260506030504 | 61 | 185 | 0.0 | 1.0 | 0.00 | 0.00 | 0.00 | 84 | 1016.5 |
| 20260506030003 | 61 | 195 | 0.0 | 1.0 | 0.00 | 0.00 | 0.00 | 84 | 1016.5 |
| 20260506025504 | 61 | 187 | 0.0 | 1.0 | 0.00 | 0.00 | 0.00 | 84 | 1016.5 |
| 20260506025214 | 61 | 183 | 0.0 | 1.0 | 0.00 | 0.00 | 0.00 | 84 | 1016.4 |
| 20260506024504 | 61 | 0 | 0.0 | 0.0 | 0.00 | 0.00 | 0.00 | 84 | 1016.5 |
| 20260506024215 | 61 | 0 | 0.0 | 0.0 | 0.00 | 0.00 | 0.00 | 84 | 1016.4 |
| 20260506023504 | 61 | 0 | 0.0 | 0.0 | 0.00 | 0.00 | 0.00 | 84 | 1016.4 |
| 20260506023003 | 61 | 0 | 0.0 | 0.0 | 0.00 | 0.00 | 0.00 | 84 | 1016.4 |
| 20260506022503 | 61 | 0 | 0.0 | 0.0 | 0.00 | 0.00 | 0.00 | 83 | 1016.5 |
| 20260506022003 | 61 | 0 | 0.0 | 0.0 | 0.00 | 0.00 | 0.00 | 83 | 1016.5 |
| 20260506021503 | 61 | 0 | 0.0 | 0.0 | 0.00 | 0.00 | 0.00 | 82 | 1016.6 |
| 20260506021003 | 61 | 0 | 0.0 | 0.0 | 0.00 | 0.00 | 0.00 | 82 | 1016.5 |
| 20260506020503 | 61 | 0 | 0.0 | 0.0 | 0.00 | 0.00 | 0.00 | 82 | 1016.2 |
| 20260506020004 | 61 | 236 | 0.0 | 1.0 | 0.00 | 0.00 | 0.00 | 82 | 1016.3 |
| 20260506015504 | 61 | 236 | 0.0 | 1.0 | 0.00 | 0.00 | 0.00 | 82 | 1016.3 |
| 20260506015003 | 61 | 0 | 0.0 | 0.0 | 0.00 | 0.00 | 0.00 | 81 | 1016.3 |
| 20260506014503 | 61 | 204 | 0.0 | 1.0 | 0.00 | 0.00 | 0.00 | 81 | 1016.3 |
| 20260506014004 | 62 | 204 | 0.0 | 1.0 | 0.00 | 0.00 | 0.00 | 81 | 1016.5 |
| 20260506013713 | 62 | 204 | 0.0 | 1.0 | 0.00 | 0.00 | 0.00 | 81 | 1016.5 |
| 20260506013216 | 61 | 225 | 0.0 | 0.0 | 0.00 | 0.00 | 0.00 | 82 | 1016.5 |
| 20260506012504 | 61 | 221 | 0.0 | 0.0 | 0.00 | 0.00 | 0.00 | 82 | 1016.5 |
| 20260506012004 | 61 | 214 | 0.0 | 1.0 | 0.00 | 0.00 | 0.00 | 82 | 1016.4 |
| 20260506011504 | 61 | 213 | 0.0 | 1.0 | 0.00 | 0.00 | 0.00 | 82 | 1016.5 |
| 20260506011213 | 61 | 0 | 0.0 | 0.0 | 0.00 | 0.00 | 0.00 | 83 | 1016.6 |
| 20260506010503 | 62 | 219 | 0.0 | 1.0 | 0.00 | 0.00 | 0.00 | 83 | 1016.5 |
| 20260506010003 | 62 | 0 | 0.0 | 0.0 | 0.00 | 0.00 | 0.00 | 83 | 1016.6 |
| 20260506005504 | 62 | 0 | 0.0 | 0.0 | 0.00 | 0.00 | 0.00 | 83 | 1016.7 |
| 20260506005004 | 62 | 0 | 0.0 | 0.0 | 0.00 | 0.00 | 0.00 | 83 | 1016.7 |
| 20260506004504 | 62 | 0 | 0.0 | 0.0 | 0.00 | 0.00 | 0.00 | 82 | 1016.7 |
| 20260506004004 | 62 | 0 | 0.0 | 0.0 | 0.00 | 0.00 | 0.00 | 83 | 1016.7 |
| 20260506003714 | 62 | 0 | 0.0 | 0.0 | 0.00 | 0.00 | 0.00 | 83 | 1016.8 |
| 20260506003003 | 62 | 141 | 0.0 | 1.0 | 0.00 | 0.00 | 0.00 | 83 | 1016.6 |
| 20260506002715 | 62 | 141 | 0.0 | 1.0 | 0.00 | 0.00 | 0.00 | 83 | 1016.6 |
| 20260506002004 | 62 | 0 | 0.0 | 0.0 | 0.00 | 0.00 | 0.00 | 83 | 1016.9 |
| 20260506001503 | 62 | 0 | 0.0 | 0.0 | 0.00 | 0.00 | 0.00 | 83 | 1017.0 |
| 20260506001003 | 62 | 0 | 0.0 | 0.0 | 0.00 | 0.00 | 0.00 | 83 | 1017.2 |
| 20260506000503 | 62 | 0 | 0.0 | 0.0 | 0.00 | 0.00 | 0.00 | 83 | 1017.1 |
| 20260506000004 | 62 | 0 | 0.0 | 0.0 | 0.00 | 0.00 | 0.00 | 83 | 1017.2 |
| 20260505235503 | 62 | 0 | 0.0 | 0.0 | 0.00 | 0.00 | 0.00 | 83 | 1017.3 |
| 20260505235004 | 62 | 0 | 0.0 | 0.0 | 0.00 | 0.00 | 0.00 | 83 | 1017.1 |
| 20260505234504 | 62 | 0 | 0.0 | 0.0 | 0.00 | 0.00 | 0.00 | 83 | 1017.5 |
| 20260505234004 | 62 | 0 | 0.0 | 0.0 | 0.00 | 0.00 | 0.00 | 83 | 1017.6 |
| 20260505233504 | 62 | 0 | 0.0 | 0.0 | 0.00 | 0.00 | 0.00 | 83 | 1017.4 |
| 20260505233003 | 62 | 0 | 0.0 | 0.0 | 0.00 | 0.00 | 0.00 | 83 | 1017.4 |
| 20260505232503 | 62 | 0 | 0.0 | 0.0 | 0.00 | 0.00 | 0.00 | 83 | 1017.4 |
| 20260505232004 | 62 | 181 | 0.0 | 1.0 | 0.00 | 0.00 | 0.00 | 83 | 1017.4 |
| 20260505231717 | 62 | 181 | 0.0 | 1.0 | 0.00 | 0.00 | 0.00 | 83 | 1017.3 |
| 20260505230503 | 62 | 167 | 0.0 | 2.0 | 0.00 | 0.00 | 0.00 | 83 | 1017.4 |
| 20260505230004 | 62 | 167 | 0.0 | 2.0 | 0.00 | 0.00 | 0.00 | 83 | 1017.3 |
| 20260505225504 | 62 | 161 | 0.0 | 2.0 | 0.00 | 0.00 | 0.00 | 83 | 1017.4 |
| 20260505225216 | 62 | 161 | 0.0 | 2.0 | 0.00 | 0.00 | 0.00 | 83 | 1017.5 |
| 20260505224504 | 62 | 119 | 0.0 | 2.0 | 0.00 | 0.00 | 0.00 | 83 | 1017.5 |
| 20260505224003 | 62 | 97 | 0.0 | 2.0 | 0.00 | 0.00 | 0.00 | 83 | 1017.6 |
| 20260505223504 | 62 | 98 | 0.0 | 2.0 | 0.00 | 0.00 | 0.00 | 83 | 1017.5 |
| 20260505223004 | 62 | 113 | 0.0 | 2.0 | 0.00 | 0.00 | 0.00 | 83 | 1017.5 |
| 20260505222503 | 62 | 119 | 0.0 | 1.0 | 0.00 | 0.00 | 0.00 | 83 | 1017.5 |
| 20260505222214 | 62 | 115 | 1.0 | 3.0 | 0.00 | 0.00 | 0.00 | 83 | 1017.4 |
| 20260505221717 | 62 | 108 | 0.0 | 3.0 | 0.00 | 0.00 | 0.00 | 83 | 1017.6 |
| 20260505221004 | 62 | 61 | 0.0 | 2.0 | 0.00 | 0.00 | 0.00 | 83 | 1017.6 |
| 20260505220504 | 62 | 115 | 0.0 | 2.0 | 0.00 | 0.00 | 0.00 | 83 | 1017.7 |
| 20260505220005 | 62 | 103 | 1.0 | 3.0 | 0.00 | 0.00 | 0.00 | 83 | 1017.8 |
| 20260505215714 | 62 | 97 | 1.0 | 3.0 | 0.00 | 0.00 | 0.00 | 83 | 1017.6 |
| 20260505215003 | 62 | 71 | 1.0 | 3.0 | 0.00 | 0.00 | 0.00 | 83 | 1017.7 |
| 20260505214503 | 62 | 70 | 1.0 | 3.0 | 0.00 | 0.00 | 0.00 | 83 | 1017.6 |
| 20260505214213 | 62 | 76 | 1.0 | 3.0 | 0.00 | 0.00 | 0.00 | 83 | 1017.7 |
| 20260505213504 | 62 | 57 | 1.0 | 4.0 | 0.00 | 0.00 | 0.00 | 83 | 1017.8 |
| 20260505213213 | 62 | 46 | 1.0 | 4.0 | 0.00 | 0.00 | 0.00 | 83 | 1017.8 |
| 20260505212504 | 62 | 64 | 1.0 | 2.0 | 0.00 | 0.00 | 0.00 | 84 | 1018.0 |
| 20260505212003 | 62 | 84 | 1.0 | 4.0 | 0.00 | 0.00 | 0.00 | 84 | 1018.1 |
| 20260505211504 | 62 | 81 | 1.0 | 4.0 | 0.00 | 0.00 | 0.00 | 84 | 1018.1 |
| 20260505211003 | 62 | 63 | 1.0 | 3.0 | 0.00 | 0.00 | 0.00 | 84 | 1018.0 |
| 20260505210504 | 62 | 76 | 1.0 | 6.0 | 0.00 | 0.00 | 0.00 | 85 | 1018.2 |
| 20260505210004 | 62 | 74 | 1.0 | 6.0 | 0.00 | 0.00 | 0.00 | 85 | 1018.1 |
| 20260505205504 | 62 | 74 | 1.0 | 6.0 | 0.00 | 0.00 | 0.00 | 85 | 1018.1 |
| 20260505205003 | 62 | 94 | 1.0 | 6.0 | 0.00 | 0.00 | 0.00 | 85 | 1018.1 |
| 20260505204504 | 62 | 88 | 1.0 | 6.0 | 0.00 | 0.00 | 0.00 | 85 | 1018.1 |
| 20260505204218 | 62 | 76 | 1.0 | 6.0 | 0.00 | 0.00 | 0.00 | 85 | 1018.2 |
| 20260505203504 | 62 | 65 | 2.0 | 7.0 | 0.00 | 0.00 | 0.00 | 85 | 1018.3 |
| 20260505203003 | 62 | 84 | 2.0 | 7.0 | 0.00 | 0.00 | 0.00 | 86 | 1018.2 |
| 20260505202504 | 62 | 85 | 2.0 | 4.0 | 0.00 | 0.00 | 0.00 | 86 | 1018.2 |
| 20260505202004 | 62 | 74 | 2.0 | 8.0 | 0.00 | 0.00 | 0.00 | 86 | 1018.2 |
| 20260505201713 | 62 | 78 | 2.0 | 8.0 | 0.00 | 0.00 | 0.00 | 86 | 1018.3 |
| 20260505201216 | 62 | 78 | 2.0 | 5.0 | 0.00 | 0.00 | 0.00 | 86 | 1018.4 |
| 20260505200503 | 62 | 96 | 2.0 | 8.0 | 0.00 | 0.00 | 0.00 | 86 | 1018.2 |
| 20260505200003 | 62 | 99 | 2.0 | 8.0 | 0.00 | 0.00 | 0.00 | 86 | 1018.3 |
| 20260505195504 | 63 | 86 | 2.0 | 6.0 | 0.00 | 0.00 | 0.00 | 85 | 1018.3 |
| 20260505195003 | 63 | 70 | 2.0 | 6.0 | 0.00 | 0.00 | 0.00 | 85 | 1018.3 |
| 20260505194504 | 63 | 68 | 2.0 | 4.0 | 0.00 | 0.00 | 0.00 | 85 | 1018.1 |
| 20260505194003 | 63 | 80 | 3.0 | 8.0 | 0.00 | 0.00 | 0.00 | 85 | 1018.0 |
| 20260505193503 | 63 | 77 | 2.0 | 8.0 | 0.00 | 0.00 | 0.00 | 85 | 1018.2 |
| 20260505193003 | 63 | 75 | 2.0 | 10.0 | 0.00 | 0.00 | 0.00 | 84 | 1018.1 |
| 20260505192713 | 63 | 82 | 2.0 | 10.0 | 0.00 | 0.00 | 0.00 | 84 | 1018.2 |
| 20260505192003 | 63 | 89 | 2.0 | 8.0 | 0.00 | 0.00 | 0.00 | 84 | 1018.2 |
| 20260505191714 | 63 | 78 | 2.0 | 7.0 | 0.00 | 0.00 | 0.00 | 84 | 1018.2 |
| 20260505191004 | 63 | 55 | 2.0 | 10.0 | 0.00 | 0.00 | 0.00 | 84 | 1018.2 |
| 20260505190503 | 63 | 70 | 2.0 | 14.0 | 0.00 | 0.00 | 0.00 | 84 | 1018.1 |
| 20260505190003 | 63 | 67 | 2.0 | 14.0 | 0.00 | 0.00 | 0.00 | 84 | 1018.0 |
| 20260505185504 | 63 | 80 | 2.0 | 14.0 | 0.00 | 0.00 | 0.00 | 83 | 1017.7 |
| 20260505185213 | 63 | 86 | 2.0 | 6.0 | 0.00 | 0.00 | 0.00 | 83 | 1017.8 |
| 20260505184503 | 63 | 78 | 3.0 | 9.0 | 0.00 | 0.00 | 0.00 | 83 | 1017.7 |
| 20260505184004 | 63 | 87 | 3.0 | 9.0 | 0.00 | 0.00 | 0.00 | 83 | 1017.8 |
| 20260505183718 | 63 | 90 | 3.0 | 9.0 | 0.00 | 0.00 | 0.00 | 83 | 1017.8 |
| 20260505183004 | 63 | 78 | 2.0 | 4.0 | 0.00 | 0.00 | 0.00 | 83 | 1017.7 |
| 20260505182504 | 63 | 81 | 2.0 | 9.0 | 0.00 | 0.00 | 0.00 | 82 | 1017.7 |
| 20260505182003 | 63 | 82 | 3.0 | 9.0 | 0.00 | 0.00 | 0.00 | 82 | 1017.6 |
| 20260505181503 | 63 | 84 | 3.0 | 13.0 | 0.00 | 0.00 | 0.00 | 82 | 1017.7 |
| 20260505181003 | 63 | 78 | 2.0 | 13.0 | 0.00 | 0.00 | 0.00 | 83 | 1017.5 |
| 20260505180504 | 63 | 71 | 2.0 | 8.0 | 0.00 | 0.00 | 0.00 | 83 | 1017.6 |
| 20260505180003 | 63 | 84 | 3.0 | 10.0 | 0.00 | 0.00 | 0.00 | 83 | 1017.7 |
| 20260505175716 | 63 | 86 | 3.0 | 10.0 | 0.00 | 0.00 | 0.00 | 82 | 1017.5 |
| 20260505175003 | 63 | 67 | 4.0 | 8.0 | 0.00 | 0.00 | 0.00 | 82 | 1017.7 |
| 20260505174504 | 63 | 44 | 4.0 | 10.0 | 0.00 | 0.00 | 0.00 | 82 | 1017.8 |
| 20260505174215 | 64 | 41 | 4.0 | 10.0 | 0.00 | 0.00 | 0.00 | 82 | 1017.6 |
| 20260505173713 | 64 | 40 | 3.0 | 9.0 | 0.00 | 0.00 | 0.00 | 81 | 1017.8 |
| 20260505173216 | 64 | 54 | 3.0 | 7.0 | 0.00 | 0.00 | 0.00 | 80 | 1017.9 |
| 20260505172503 | 64 | 47 | 2.0 | 10.0 | 0.00 | 0.00 | 0.00 | 80 | 1017.5 |
| 20260505172003 | 64 | 45 | 2.0 | 10.0 | 0.00 | 0.00 | 0.00 | 80 | 1017.4 |
| 20260505171715 | 64 | 47 | 3.0 | 10.0 | 0.00 | 0.00 | 0.00 | 80 | 1017.4 |
| 20260505171003 | 64 | 56 | 2.0 | 7.0 | 0.00 | 0.00 | 0.00 | 80 | 1017.4 |
| 20260505170504 | 64 | 59 | 2.0 | 9.0 | 0.00 | 0.00 | 0.00 | 78 | 1017.4 |
| 20260505170214 | 64 | 62 | 2.0 | 9.0 | 0.00 | 0.00 | 0.00 | 77 | 1017.5 |
| 20260505165503 | 65 | 63 | 2.0 | 6.0 | 0.00 | 0.00 | 0.00 | 77 | 1017.4 |
| 20260505165004 | 65 | 64 | 3.0 | 11.0 | 0.00 | 0.00 | 0.00 | 75 | 1017.3 |
| 20260505164503 | 64 | 73 | 3.0 | 11.0 | 0.00 | 0.00 | 0.00 | 75 | 1017.7 |
| 20260505164216 | 65 | 76 | 3.0 | 9.0 | 0.00 | 0.00 | 0.00 | 75 | 1017.6 |
| 20260505163714 | 65 | 68 | 2.0 | 8.0 | 0.00 | 0.00 | 0.00 | 74 | 1017.5 |
| 20260505163003 | 65 | 73 | 2.0 | 8.0 | 0.00 | 0.00 | 0.00 | 74 | 1017.7 |
| 20260505162503 | 65 | 111 | 2.0 | 9.0 | 0.00 | 0.00 | 0.00 | 74 | 1017.6 |
| 20260505162003 | 65 | 101 | 3.0 | 9.0 | 0.00 | 0.00 | 0.00 | 74 | 1017.5 |
| 20260505161503 | 66 | 68 | 2.0 | 8.0 | 0.00 | 0.00 | 0.00 | 73 | 1017.6 |
| 20260505161003 | 65 | 65 | 2.0 | 6.0 | 0.00 | 0.00 | 0.00 | 73 | 1017.6 |
| 20260505160504 | 65 | 91 | 2.0 | 9.0 | 0.00 | 0.00 | 0.00 | 73 | 1017.5 |
| 20260505153003 | 66 | 88 | 2.0 | 9.0 | 0.00 | 0.00 | 0.00 | 72 | 1017.5 |
| 20260505152715 | 66 | 90 | 3.0 | 9.0 | 0.00 | 0.00 | 0.00 | 73 | 1017.4 |
| 20260505152004 | 67 | 95 | 2.0 | 8.0 | 0.00 | 0.00 | 0.00 | 70 | 1017.4 |
| 20260505151503 | 67 | 106 | 2.0 | 5.0 | 0.00 | 0.00 | 0.00 | 70 | 1017.7 |
| 20260505151004 | 67 | 98 | 4.0 | 10.0 | 0.00 | 0.00 | 0.00 | 69 | 1017.7 |
| 20260505150503 | 66 | 89 | 4.0 | 10.0 | 0.00 | 0.00 | 0.00 | 68 | 1017.5 |
| 20260505140504 | 68 | 93 | 3.0 | 8.0 | 0.00 | 0.00 | 0.00 | 65 | 1017.7 |
| 20260505130216 | 68 | 94 | 3.0 | 11.0 | 0.00 | 0.00 | 0.00 | 63 | 1017.8 |
| 20260505125003 | 69 | 95 | 3.0 | 10.0 | 0.00 | 0.00 | 0.00 | 61 | 1017.9 |
| 20260505124503 | 69 | 95 | 3.0 | 9.0 | 0.00 | 0.00 | 0.00 | 62 | 1017.9 |
| 20260505124003 | 69 | 113 | 2.0 | 10.0 | 0.00 | 0.00 | 0.00 | 61 | 1017.9 |
| 20260505123503 | 70 | 118 | 3.0 | 10.0 | 0.00 | 0.00 | 0.00 | 59 | 1018.1 |
| 20260505123003 | 70 | 95 | 3.0 | 9.0 | 0.00 | 0.00 | 0.00 | 62 | 1018.1 |
| 20260505122717 | 70 | 98 | 2.0 | 7.0 | 0.00 | 0.00 | 0.00 | 61 | 1018.1 |
| 20260505122004 | 69 | 97 | 2.0 | 8.0 | 0.00 | 0.00 | 0.00 | 63 | 1018.2 |
| 20260505121504 | 70 | 84 | 2.0 | 7.0 | 0.00 | 0.00 | 0.00 | 60 | 1018.2 |
| 20260505121004 | 68 | 77 | 2.0 | 4.0 | 0.00 | 0.00 | 0.00 | 63 | 1018.1 |
| 20260505120503 | 69 | 86 | 3.0 | 13.0 | 0.00 | 0.00 | 0.00 | 63 | 1018.2 |
| 20260505120004 | 69 | 99 | 3.0 | 13.0 | 0.00 | 0.00 | 0.00 | 64 | 1018.4 |
| 20260505115503 | 69 | 105 | 3.0 | 8.0 | 0.00 | 0.00 | 0.00 | 61 | 1018.4 |
| 20260505115003 | 68 | 110 | 3.0 | 8.0 | 0.00 | 0.00 | 0.00 | 64 | 1018.5 |
| 20260505114504 | 69 | 130 | 4.0 | 7.0 | 0.00 | 0.00 | 0.00 | 63 | 1018.5 |
| 20260505114004 | 69 | 138 | 4.0 | 11.0 | 0.00 | 0.00 | 0.00 | 61 | 1018.9 |
| 20260505113503 | 69 | 126 | 3.0 | 11.0 | 0.00 | 0.00 | 0.00 | 63 | 1018.6 |
| 20260505113004 | 69 | 105 | 3.0 | 10.0 | 0.00 | 0.00 | 0.00 | 63 | 1018.8 |
| 20260505112503 | 69 | 92 | 3.0 | 8.0 | 0.00 | 0.00 | 0.00 | 63 | 1018.7 |
| 20260505112004 | 69 | 91 | 2.0 | 8.0 | 0.00 | 0.00 | 0.00 | 64 | 1019.0 |
| 20260505111503 | 68 | 86 | 2.0 | 5.0 | 0.00 | 0.00 | 0.00 | 63 | 1019.0 |
| 20260505111004 | 69 | 109 | 3.0 | 9.0 | 0.00 | 0.00 | 0.00 | 61 | 1018.8 |
| 20260505110715 | 69 | 115 | 3.0 | 9.0 | 0.00 | 0.00 | 0.00 | 62 | 1019.0 |
| 20260505102004 | 68 | 103 | 2.0 | 8.0 | 0.00 | 0.00 | 0.00 | 62 | 1018.9 |
| 20260505101503 | 69 | 98 | 2.0 | 6.0 | 0.00 | 0.00 | 0.00 | 58 | 1019.0 |
| 20260505101004 | 69 | 115 | 2.0 | 9.0 | 0.00 | 0.00 | 0.00 | 59 | 1018.8 |
| 20260505100504 | 70 | 142 | 2.0 | 9.0 | 0.00 | 0.00 | 0.00 | 58 | 1018.8 |
| 20260505100213 | 69 | 132 | 3.0 | 9.0 | 0.00 | 0.00 | 0.00 | 60 | 1019.0 |
| 20260505095716 | 69 | 117 | 2.0 | 7.0 | 0.00 | 0.00 | 0.00 | 61 | 1018.8 |
| 20260505095004 | 69 | 125 | 2.0 | 6.0 | 0.00 | 0.00 | 0.00 | 60 | 1018.9 |
| 20260505094503 | 70 | 138 | 3.0 | 8.0 | 0.00 | 0.00 | 0.00 | 59 | 1019.1 |
| 20260505094003 | 70 | 142 | 3.0 | 8.0 | 0.00 | 0.00 | 0.00 | 61 | 1019.1 |
| 20260505093504 | 71 | 152 | 2.0 | 7.0 | 0.00 | 0.00 | 0.00 | 58 | 1019.1 |
| 20260505093004 | 71 | 150 | 1.0 | 4.0 | 0.00 | 0.00 | 0.00 | 59 | 1019.1 |
| 20260505092714 | 70 | 154 | 1.0 | 6.0 | 0.00 | 0.00 | 0.00 | 60 | 1018.9 |
| 20260505092004 | 69 | 117 | 2.0 | 6.0 | 0.00 | 0.00 | 0.00 | 62 | 1019.0 |
| 20260505091503 | 69 | 113 | 2.0 | 7.0 | 0.00 | 0.00 | 0.00 | 64 | 1018.9 |
| 20260505091218 | 69 | 110 | 2.0 | 7.0 | 0.00 | 0.00 | 0.00 | 63 | 1019.0 |
| 20260505090716 | 70 | 94 | 2.0 | 5.0 | 0.00 | 0.00 | 0.00 | 63 | 1018.8 |
| 20260505090004 | 70 | 114 | 2.0 | 8.0 | 0.00 | 0.00 | 0.00 | 63 | 1019.0 |
| 20260505085503 | 71 | 117 | 2.0 | 6.0 | 0.00 | 0.00 | 0.00 | 61 | 1019.0 |
| 20260505085003 | 71 | 110 | 2.0 | 6.0 | 0.00 | 0.00 | 0.00 | 59 | 1018.8 |
| 20260505084503 | 71 | 117 | 3.0 | 7.0 | 0.00 | 0.00 | 0.00 | 61 | 1019.1 |
| 20260505084004 | 71 | 142 | 2.0 | 7.0 | 0.00 | 0.00 | 0.00 | 59 | 1018.8 |
| 20260505083504 | 74 | 175 | 2.0 | 7.0 | 0.00 | 0.00 | 0.00 | 55 | 1018.5 |
| 20260505083003 | 74 | 177 | 2.0 | 7.0 | 0.00 | 0.00 | 0.00 | 55 | 1018.8 |
| 20260505082503 | 74 | 185 | 2.0 | 3.0 | 0.00 | 0.00 | 0.00 | 52 | 1018.4 |
| 20260505082003 | 73 | 184 | 2.0 | 4.0 | 0.00 | 0.00 | 0.00 | 51 | 1018.7 |
| 20260505081504 | 74 | 158 | 1.0 | 4.0 | 0.00 | 0.00 | 0.00 | 51 | 1018.7 |
| 20260505081213 | 74 | 154 | 1.0 | 3.0 | 0.00 | 0.00 | 0.00 | 51 | 1018.7 |
| 20260505080716 | 76 | 188 | 1.0 | 4.0 | 0.00 | 0.00 | 0.00 | 49 | 1018.5 |
| 20260505080004 | 74 | 205 | 1.0 | 4.0 | 0.00 | 0.00 | 0.00 | 51 | 1018.7 |
| 20260505075503 | 74 | 183 | 1.0 | 2.0 | 0.00 | 0.00 | 0.00 | 51 | 1018.7 |
| 20260505075004 | 74 | 193 | 1.0 | 2.0 | 0.00 | 0.00 | 0.00 | 52 | 1018.7 |
| 20260505074503 | 73 | 193 | 1.0 | 3.0 | 0.00 | 0.00 | 0.00 | 51 | 1018.6 |
| 20260505074004 | 71 | 193 | 2.0 | 3.0 | 0.00 | 0.00 | 0.00 | 53 | 1018.7 |
| 20260505073504 | 71 | 195 | 2.0 | 4.0 | 0.00 | 0.00 | 0.00 | 57 | 1018.8 |
| 20260505073004 | 71 | 193 | 2.0 | 4.0 | 0.00 | 0.00 | 0.00 | 56 | 1018.8 |
| 20260505072504 | 70 | 198 | 2.0 | 6.0 | 0.00 | 0.00 | 0.00 | 57 | 1018.9 |
| 20260505072004 | 70 | 200 | 2.0 | 6.0 | 0.00 | 0.00 | 0.00 | 58 | 1018.9 |
| 20260505071504 | 70 | 193 | 1.0 | 3.0 | 0.00 | 0.00 | 0.00 | 57 | 1019.0 |
| 20260505071004 | 69 | 197 | 1.0 | 3.0 | 0.00 | 0.00 | 0.00 | 59 | 1018.9 |
| 20260505070504 | 69 | 195 | 1.0 | 2.0 | 0.00 | 0.00 | 0.00 | 60 | 1018.9 |
| 20260505070004 | 69 | 188 | 1.0 | 2.0 | 0.00 | 0.00 | 0.00 | 60 | 1019.0 |
| 20260505065504 | 69 | 175 | 0.0 | 2.0 | 0.00 | 0.00 | 0.00 | 60 | 1019.0 |
| 20260505065003 | 69 | 176 | 0.0 | 1.0 | 0.00 | 0.00 | 0.00 | 61 | 1019.0 |
| 20260505064503 | 68 | 160 | 0.0 | 2.0 | 0.00 | 0.00 | 0.00 | 61 | 1018.9 |
| 20260505064003 | 68 | 182 | 1.0 | 2.0 | 0.00 | 0.00 | 0.00 | 61 | 1019.0 |
| 20260505063503 | 68 | 185 | 1.0 | 2.0 | 0.00 | 0.00 | 0.00 | 61 | 1018.9 |
| 20260505063004 | 68 | 165 | 0.0 | 2.0 | 0.00 | 0.00 | 0.00 | 61 | 1018.9 |
| 20260505062504 | 69 | 174 | 1.0 | 2.0 | 0.00 | 0.00 | 0.00 | 61 | 1018.8 |
| 20260505062003 | 69 | 165 | 0.0 | 2.0 | 0.00 | 0.00 | 0.00 | 60 | 1018.9 |
| 20260505061717 | 68 | 159 | 0.0 | 2.0 | 0.00 | 0.00 | 0.00 | 61 | 1018.9 |
| 20260505061004 | 65 | 180 | 0.0 | 1.0 | 0.00 | 0.00 | 0.00 | 66 | 1019.0 |
| 20260505060503 | 65 | 179 | 1.0 | 1.0 | 0.00 | 0.00 | 0.00 | 65 | 1019.0 |
| 20260505060003 | 66 | 170 | 0.0 | 1.0 | 0.00 | 0.00 | 0.00 | 65 | 1019.0 |
| 20260505055503 | 65 | 162 | 0.0 | 1.0 | 0.00 | 0.00 | 0.00 | 65 | 1019.0 |
| 20260505055217 | 65 | 167 | 0.0 | 1.0 | 0.00 | 0.00 | 0.00 | 66 | 1019.0 |
| 20260505054504 | 65 | 158 | 1.0 | 2.0 | 0.00 | 0.00 | 0.00 | 66 | 1018.9 |
| 20260505054004 | 65 | 151 | 1.0 | 2.0 | 0.00 | 0.00 | 0.00 | 67 | 1018.8 |
| 20260505053716 | 65 | 157 | 1.0 | 2.0 | 0.00 | 0.00 | 0.00 | 66 | 1018.9 |
| 20260505053004 | 64 | 162 | 1.0 | 2.0 | 0.00 | 0.00 | 0.00 | 68 | 1019.1 |
| 20260505052503 | 63 | 149 | 1.0 | 2.0 | 0.00 | 0.00 | 0.00 | 68 | 1019.0 |
| 20260505052003 | 64 | 152 | 0.0 | 2.0 | 0.00 | 0.00 | 0.00 | 67 | 1019.1 |
| 20260505051504 | 64 | 178 | 0.0 | 1.0 | 0.00 | 0.00 | 0.00 | 66 | 1019.0 |
| 20260505051004 | 64 | 182 | 0.0 | 1.0 | 0.00 | 0.00 | 0.00 | 68 | 1018.9 |
| 20260505050713 | 63 | 183 | 0.0 | 1.0 | 0.00 | 0.00 | 0.00 | 68 | 1018.7 |
| 20260505050216 | 62 | 182 | 0.0 | 1.0 | 0.00 | 0.00 | 0.00 | 70 | 1018.7 |
| 20260505041713 | 60 | 167 | 0.0 | 2.0 | 0.00 | 0.00 | 0.00 | 74 | 1018.4 |
| 20260505041216 | 60 | 146 | 0.0 | 1.0 | 0.00 | 0.00 | 0.00 | 74 | 1018.3 |
| 20260505040504 | 60 | 181 | 0.0 | 2.0 | 0.00 | 0.00 | 0.00 | 73 | 1018.4 |
| 20260505040005 | 60 | 188 | 1.0 | 2.0 | 0.00 | 0.00 | 0.00 | 73 | 1018.6 |
| 20260505035503 | 60 | 184 | 1.0 | 1.0 | 0.00 | 0.00 | 0.00 | 73 | 1018.5 |
| 20260505035003 | 61 | 171 | 0.0 | 1.0 | 0.00 | 0.00 | 0.00 | 72 | 1018.4 |
| 20260505034716 | 61 | 174 | 0.0 | 1.0 | 0.00 | 0.00 | 0.00 | 72 | 1018.5 |
| 20260505034003 | 61 | 188 | 0.0 | 1.0 | 0.00 | 0.00 | 0.00 | 71 | 1018.2 |
| 20260505033504 | 61 | 192 | 0.0 | 1.0 | 0.00 | 0.00 | 0.00 | 71 | 1018.3 |
| 20260505033003 | 61 | 191 | 0.0 | 1.0 | 0.00 | 0.00 | 0.00 | 71 | 1018.3 |
| 20260505032503 | 61 | 197 | 0.0 | 0.0 | 0.00 | 0.00 | 0.00 | 71 | 1018.2 |
| 20260505032004 | 61 | 197 | 0.0 | 0.0 | 0.00 | 0.00 | 0.00 | 71 | 1018.4 |
| 20260505031504 | 61 | 191 | 0.0 | 1.0 | 0.00 | 0.00 | 0.00 | 71 | 1018.2 |
| 20260505031003 | 61 | 197 | 0.0 | 1.0 | 0.00 | 0.00 | 0.00 | 71 | 1018.2 |